Location: *
(50.2903°S, 172.5375°W)
Time: 14:58:39
(UTC+00:00)

Resurs 1-4 Rocket - Pass Details

Date: 21 February 2020
Orbit: 800 x 814 km, 98.6° (Epoch: 09 April)

Event Time Altitude Azimuth Distance (km) Brightness Sun altitude
Exits shadow 12:53:09 38° 254° (WSW) 1,232 3.0 -27.2°
Drops below altitude 10° 12:57:21 10° 207° (SSW) 2,422 5.1 -27.0°
Sets 12:59:51 0° 200° (SSW) 3,359 6.0 -26.9°
